Regional Weather Roundup
Issued by NWS Kansas City/Pleasant Hill, MO

Home | Current Version | Previous Version | Text Only | Print | Product List | Glossary On
Versions: 1 2 3 4 5 6 7 8 9 10 11 12 13 14 15 16 17 18 19 20 21 22 23 24 25 26 27 28
000
ASUS43 KEAX 160210
RWREAX

WEATHER ROUNDUP FOR EASTERN KANSAS AND NORTHWEST MISSOURI
NATIONAL WEATHER SERVICE KANSAS CITY/PLEASANT HILL MO
800 PM CST FRI DEC 15 2017

KSZ040-057-103>105-MOZ028-029-037-043-160300-
...KANSAS CITY METROPOLITAN AREA...

CITY           SKY/WX    TMP DP  RH WIND       PRES   REMARKS
K.C. INTL      CLEAR     41  24  51 SW17G26   29.93F WCI  32
K.C. DOWNTOWN  CLEAR     44  24  45 SW16G25   29.95F
LEES SUMMIT    CLEAR     41  24  51 SW20      29.95F WCI  32
OLATHE - IXD   CLEAR     40  25  55 S18       29.96F WCI  31
OLATHE - OJC   CLEAR     39  24  55 SW14G22   29.96F WCI  31
LAWRENCE       CLEAR     44  26  49 S16G25    29.95F

$$

MOZ001>008-011>017-020>025-030>033-038>040-044>046-053-054-160300-
...NORTHERN AND CENTRAL MISSOURI...

CITY           SKY/WX    TMP DP  RH WIND       PRES   REMARKS
ST. JOSEPH     CLEAR     41  26  55 SW16      29.91F WCI  33
MOSBY          CLEAR     41  23  48 SW8       29.95S
WARRENSBURG    CLEAR     36  23  60 S12       29.99F WCI  27
WHITEMAN AFB   CLEAR     34  23  64 SW13      29.95F WCI  25
CLINTON        CLEAR     36  25  64 SW8       30.03F WCI  29
SEDALIA        CLEAR     38  27  64 S10       30.01F WCI  31
WARSAW         NOT AVBL
CHILLICOTHE      N/A     37  21  52 S7        29.95F WCI  32
KIRKSVILLE     CLOUDY    36  26  67 SW12      29.94F WCI  28

$$

MOZ041-047>049-056>058-063>065-088>090-097-160300-
...EASTERN AND SOUTHERN MISSOURI...

CITY           SKY/WX    TMP DP  RH WIND       PRES   REMARKS
ST. LOUIS INTL CLEAR     36  23  59 SW6       30.07R WCI  31
SPIRIT OF STL  CLEAR     32  22  66 CALM      30.06S
COLUMBIA       CLEAR     33  25  72 S10       30.02F WCI  25
JEFFERSON CITY CLEAR     37  25  61 SE3       30.05S
ROLLA          CLEAR     30  24  78 SW8       30.06S WCI  22
OSAGE BEACH    CLEAR     35  26  69 S8        30.07S WCI  29
SPRINGFIELD    CLEAR     34  24  67 SW8       30.07R WCI  27
BRANSON        CLEAR     37  25  60 SW6       30.10F WCI  33
JOPLIN         CLEAR     38  26  62 SW9       30.09R WCI  31
WEST PLAINS    CLEAR     33  24  69 SW3       30.10S

$$

IAZ060-094-KSZ022-034>040-054-083-096-NEZ052-066-093-160300-
...KANSAS...SOUTHEAST NEBRASKA AND IOWA...

CITY           SKY/WX    TMP DP  RH WIND       PRES   REMARKS
TOPEKA         CLEAR     43  26  51 S9        29.94F
MANHATTAN      CLEAR     44  24  45 SW15      29.92S
EMPORIA        CLEAR     37  24  59 S17       29.97F WCI  27
CHANUTE        CLEAR     35  23  61 S8        30.06S WCI  29
WICHITA        CLEAR     40  25  55 S13       29.99F WCI  32
OMAHA          PTCLDY    42  24  49 S10       29.79F
LINCOLN        CLEAR     44  24  45 SW15G25   29.79F
FALLS CITY     CLOUDY    42  24  49 S17       29.86F WCI  34
LAMONI         CLOUDY    36  21  54 S12       29.86F WCI  28
DES MOINES     MOCLDY    39  23  52 S10       29.82F WCI  32

$$





USA.gov is the U.S. government's official web portal to all federal, state and local government web resources and services.